Location: ?????????
(38.4566°N, 23.2209°E)
Time: 01:00:48
(UTC+00:00)

Daily predictions for brighter satellites

Satellite Brightness Start Highest point End
(mag) Time Altitude Azimuth Time Altitude Azimuth Time Altitude Azimuth
CZ-3 Stage 3 4.4 01:27:11 50° SE 01:27:11 50° SE 01:46:21 10° E
CZ-3 R/B 4.0 01:45:41 58° SSW 01:47:18 59° SSW 01:58:18 10° ESE
Cosmos 2082 Rocket 4.1 02:07:34 25° ENE 02:07:34 25° ENE 02:10:53 10° NE
Cosmos 1980 Rocket 3.2 02:32:25 41° ENE 02:32:25 41° ENE 02:37:20 10° SE
Tiangong 1.3 02:55:00 12° E 02:55:00 12° E 02:55:21 10° E
SL-8 R/B 3.8 03:12:41 67° SE 03:12:41 67° SE 03:16:50 10° SE
Cosmos 1697 Rocket 4.3 03:17:16 20° SSW 03:17:16 20° SSW 03:19:13 10° S
Meteor 2-3 Rocket 4.5 03:20:05 10° S 03:25:39 54° E 03:31:12 10° NNE
Cosmos 489 Rocket 4.5 03:20:56 10° SSW 03:27:14 85° ESE 03:33:32 10° NNE
Nadezhda 4 Rocket 3.9 03:21:56 10° S 03:28:16 89° E 03:34:35 10° N
Cosmos 1726 Rocket 4.4 03:31:10 10° N 03:35:23 47° E 03:39:26 10° SSE
USA 59 Rocket 0.8 03:34:44 34° N 03:36:08 49° NE 03:41:07 10° SE
COSMOS 2406 3.1 03:32:39 10° SSW 03:38:19 87° WNW 03:44:01 10° NNE
SL-24 R/B - RUBIN 2 3.4 03:38:33 61° WSW 03:38:42 61° WSW 03:43:03 10° SSE
CZ-4 R/B 3.7 03:34:36 10° NNE 03:39:15 88° E 03:43:51 10° SSW
Cosmos 841 Rocket 3.3 03:34:43 10° SSW 03:39:54 70° WNW 03:45:09 10° NNE
BREEZE-M DEB (TANK) 3.5 03:44:06 32° WNW 03:47:15 88° SW 03:50:44 10° ESE
Cosmos 2082 Rocket 2.6 03:49:32 36° WNW 03:50:00 36° WNW 03:55:11 10° N
Cosmos 1892 Rocket 3.6 03:45:42 10° S 03:50:01 78° E 03:54:24 10° N
Cosmos 1933 3.1 03:52:07 48° NW 03:52:52 60° W 03:56:36 10° S
SL-16 R/B 3.3 03:47:35 10° N 03:52:57 41° ENE 03:58:16 10° SE
NOSS 2-1 (C) 3.6 03:58:58 26° NNW 04:01:08 73° NE 04:06:19 10° SE
COSMOS 2455 2.8 03:58:09 19° NNW 04:02:36 74° WSW 04:08:34 10° SSE
IRS-1D 3.7 04:00:18 10° N 04:05:03 45° WNW 04:09:53 10° SW
Cosmos 1898 Rocket 3.5 04:02:27 17° NNW 04:06:26 62° WSW 04:11:36 10° S
Cosmos 405 Rocket 4.5 04:10:20 10° SSE 04:13:10 28° E 04:16:02 10° NNE
Cosmos 1627 Rocket 4.4 04:09:01 10° SSW 04:15:06 74° W 04:21:14 10° N
Cosmos 1980 Rocket 3.2 04:14:14 22° WNW 04:15:45 25° WSW 04:20:10 10° SSW
Cosmos 2278 4.3 04:10:32 10° NNW 04:16:06 56° ENE 04:21:36 10° SE
COSMO-SKYMED 1 2.4 04:14:08 10° S 04:18:11 59° W 04:22:16 10° NNW
SWAS 4.2 04:15:30 17° NNW 04:18:32 70° WSW 04:22:30 10° SSE
Cosmos-2242 3.3 04:16:11 10° N 04:20:24 66° E 04:24:34 10° SSE
Cosmos 2369 4.1 04:16:16 16° NW 04:20:27 43° WSW 04:25:45 10° S
SKYMED 2 4.1 04:16:27 10° SSW 04:20:27 37° W 04:24:01 13° NNW
Delta 2 Rocket 3.9 04:21:31 18° WSW 04:23:04 28° SSW 04:25:42 10° SE
ATLAS 2AS CENTAUR R/B 4.3 04:17:39 10° S 04:24:09 39° ESE 04:30:30 10° NE
Meteor 2-2 Rocket 4.4 04:18:42 10° N 04:24:25 79° E 04:30:13 10° SSE
Meteor 2-20 Rocket 4.4 04:20:38 10° N 04:26:24 79° E 04:32:06 10° S
Cosmos 2058 Rocket 3.1 04:22:19 10° N 04:26:47 88° E 04:31:09 10° S
Tiangong -1.9 04:27:21 22° W 04:29:16 62° SSW 04:32:27 10° ESE
Cosmos 1484 Rocket 2.4 04:26:44 10° N 04:30:04 55° WNW 04:33:22 10° SSW
BREEZE-M DEB (TANK) 2.9 04:27:22 10° SW 04:30:11 58° SE 04:32:34 10° ENE
Cosmos 1937 Rocket 3.7 04:26:10 10° NNW 04:31:05 49° WSW 04:36:00 10° S
Cosmos 858 Rocket 4.4 04:26:00 10° NNW 04:31:10 72° WSW 04:36:19 10° S
Okean 1 3.0 04:31:48 10° N 04:35:22 84° E 04:38:54 10° S
ARIANE 5 R/B 4.0 04:31:04 10° NNE 04:36:01 42° E 04:40:57 10° S
Cosmos 2333 Rocket 2.4 04:36:03 10° NNW 04:41:50 78° ENE 04:47:34 10° SSE
IRIDIUM 114 4.3 04:38:46 10° S 04:43:59 88° W 04:49:13 10° N
Cosmos 2026 Rocket 4.3 04:39:13 10° SW 04:44:50 39° WNW 04:50:30 10° N
NOSS 3-1 (A) 4.5 04:39:12 10° NNW 04:46:43 71° NE 04:55:51 10° SE
Cosmos 2360 Rocket 2.8 04:43:02 10° NNW 04:48:36 59° ENE 04:54:07 10° SE
BREEZE M DEB (TANK) 1.9 04:46:48 10° WSW 04:48:57 43° NNW 04:52:31 10° NE
SMAP 3.2 04:44:19 10° NNE 04:48:59 84° E 04:53:39 10° SSW
Cosmos 1814 Rocket 4.0 04:45:48 10° SSW 04:50:57 67° WNW 04:56:14 10° NNE
SAR-Lupe-4 4.2 04:48:32 10° NNE 04:52:04 60° ESE 04:55:33 10° S
Helios 1A Rocket 3.9 04:50:12 10° SW 04:52:39 19° W 04:55:08 10° NW
IRIDIUM 103 4.3 04:47:57 10° S 04:53:09 72° W 04:58:22 10° N
Landsat 7 4.0 04:50:19 10° NNE 04:54:58 77° E 04:59:37 10° S
CBERS-1 4.1 04:50:56 10° N 04:55:53 53° WNW 05:00:48 10° SSW
Cosmos 1758 Rocket 3.6 04:56:11 10° SSW 05:00:35 66° W 05:04:59 10° N
IGS 5A 4.1 04:57:26 10° N 05:01:01 32° WNW 05:04:34 10° SW
IRS-1C 4.4 04:58:58 10° NNE 05:04:18 76° ESE 05:09:37 10° S
Meteor 2-6 Rocket 4.4 04:59:24 10° N 05:05:23 85° W 05:11:19 10° S
Cosmos 2219 Rocket 3.1 05:01:59 10° NNW 05:07:29 49° ENE 05:12:54 10° SE
